www.pogodaiklimat.ru

Погода и климат >> Архив погоды >> Индия >> New Delhi


АРХИВ ПОГОДЫ в New Delhi

Время (UTC), дата Ветер
(напр.,м/с)
 
Видим.   Явления Облачность Т
(С)
Тd
(С)
f
(%)
Тe
(С)
Тes
(С)
Комфортность P
(гПа)
Po
(гПа)
Тmin
(С)
Tmax
(С)
R
(мм)
R24
(мм)
S
(см)
12 15.02 З 5 4000 м мгла ясно +23.2 +11.9 49 +26 +26 жарко 1017.7 1018.0 +24.8
15 15.02 штиль 0 2000 м мгла 5/3 1200 м
[Cu med, cong Ac trans]
+17.8 +12.8 73 +18 +18 по сезону 1019.5 1020.0
18 15.02 З 1 2000 м дымка ясно +14.8 +12.2 84 +15 +15 по сезону 1020.2 1020.0
21 15.02 штиль 0 2000 м дымка ясно +13.8 +11.6 87 +13 +13 по сезону 1020.0 1020.0
00 16.02 штиль 0 500 м местами туман поземный ясно +13.0 +11.9 93 +12 +12 по сезону 1019.1 1019.0
03 16.02 З 2 500 м местами туман поземный ясно +12.8 +12.1 96 +12 +15 холодно 1020.7 1021.0 +11.2 +24.8
06 16.02 СЗ 4 2000 м дым ясно +21.2 +12.0 56 +23 +32 комфорт 1020.4 1020.0
09 16.02 З 3 2000 м мгла ясно +24.4 +11.3 44 +26 +33 жарко 1016.7 1017.0
12 16.02 З 2 2000 м мгла ясно +23.0 +13.4 55 +26 +26 жарко 1015.5 1016.0 +25.1
15 16.02 штиль 0 2000 м дымка ясно +18.2 +16.2 88 +19 +19 по сезону 1016.0 1016.0
18 16.02 штиль 0 2000 м дымка ясно +15.2 +13.4 89 +15 +15 по сезону 1015.5 1016.0
21 16.02 штиль 0 1000 м дымка ясно +14.0 +12.2 89 +14 +14 по сезону 1014.3 1014.0
00 17.02 штиль 0 1000 м дымка ясно +13.8 +12.2 90 +13 +13 по сезону 1014.3 1014.0
03 17.02 З 3 1000 м местами туман поземный ясно +14.6 +12.0 84 +14 +17 прохладно 1014.7 1015.0 +12.6 +25.1
06 17.02 З 4 2000 м мгла ясно +21.6 +11.2 52 +24 +32 комфорт 1014.5 1015.0
09 17.02 З 4 2000 м мгла 3/0
[Ac trans]
+25.4 +11.3 41 +27 +31 жарко 1011.0 1011.0
12 17.02 З 2 2000 м мгла 3/0
[Ac trans]
+24.2 +10.5 42 +25 +26 комфорт 1010.0 1010.0 +26.4
15 17.02 штиль 0 2000 м дымка 4/0
[Ac trans]
+17.6 +13.4 76 +18 +18 по сезону 1011.7 1012.0
18 17.02 штиль 0 1000 м дымка ясно +15.6 +13.5 87 +15 +15 по сезону 1012.0 1012.0
21 17.02 штиль 0 1000 м дымка ясно +14.4 +13.3 93 +14 +14 по сезону 1011.6 1012.0
00 18.02 З 1 500 м местами туман поземный ясно +13.8 +13.1 96 +14 +14 по сезону 1011.1 1011.0
03 18.02 З 1 500 м дымка ясно +14.6 +13.5 93 +15 +18 прохладно 1013.1 1013.0 +12.5 +26.4
06 18.02 З 3 2000 м мгла ясно +23.4 +10.4 44 +25 +36 комфорт 1013.0 1013.0
12 18.02 З 2 4000 м мгла ясно +25.0 +8.2 34 +25 +25 комфорт 1010.4 1010.0 +26.4
15 18.02 штиль 0 2000 м мгла ясно +16.2 +10.2 68 +16 +16 прохладно 1013.0 1013.0
18 18.02 штиль 0 2000 м дымка 3/0
[Ac trans]
+13.4 +11.1 86 +13 +13 прохладно 1013.9 1014.0
21 18.02 штиль 0 2000 м дымка 3/0
[Ac trans]
+12.2 +10.7 91 +12 +12 по сезону 1012.0 1012.0
00 19.02 штиль 0 1000 м дымка 3/0
[Ac trans]
+11.2 +10.4 95 +10 +10 прохладно 1013.4 1013.0
03 19.02 штиль 0 1000 м дымка 3/0
[Ci fib]
+11.8 +9.0 83 +11 +15 холодно 1015.4 1015.0 +10.0 +26.4
06 19.02 З 1 2000 м мгла ясно +24.0 +10.3 42 +25 +40 комфорт 1015.3 1015.0
09 19.02 З 5 2000 м мгла 3/0
[Ci fib]
+26.6 +7.0 29 +26 +31 жарко 1013.3 1013.0
12 19.02 З 2 2000 м мгла 5/3 1200 м
[Sc Ac trans]
+25.2 +9.6 37 +26 +26 жарко 1012.1 1012.0 +26.9
15 19.02 штиль 0 2000 м мгла 5/3 1200 м
[Sc Ac trans]
+17.6 +12.2 71 +18 +18 по сезону 1013.8 1014.0
18 19.02 штиль 0 2000 м дымка 3/0
[Ac trans]
+14.4 +11.8 84 +14 +14 по сезону 1014.8 1015.0
21 19.02 штиль 0 1000 м дымка 3/0
[Ac trans]
+13.8 +11.9 88 +13 +13 по сезону 1013.1 1013.0
00 20.02 штиль 0 500 м местами туман поземный ясно +11.4 +10.6 95 +11 +11 по сезону 1013.6 1014.0
03 20.02 З 1 500 м дымка ясно +12.4 +11.7 95 +12 +16 холодно 1015.1 1015.0 +10.1 +26.9
06 20.02 СЗ 2 2000 м мгла ясно +24.4 +12.6 48 +26 +39 жарко 1014.3 1014.0
09 20.02 З 4 4000 м мгла ясно +28.2 +8.5 29 +28 +34 жарко 1011.5 1012.0
12 20.02 З 3 4000 м мгла ясно +27.0 +10.3 35 +28 +28 жарко 1010.9 1011.0 +29.0
15 20.02 штиль 0 2000 м мгла ясно +18.4 +13.1 71 +19 +19 по сезону 1012.7 1013.0
18 20.02 штиль 0 2000 м дымка 3/0
[]
+15.8 +12.9 83 +16 +16 по сезону 1013.0 1013.0
21 20.02 штиль 0 2000 м дымка 3/0
[Ac trans]
+14.6 +13.2 91 +14 +14 по сезону 1012.0 1012.0
00 21.02 штиль 0 2000 м дымка 3/0
[Ac trans]
+13.8 +12.7 93 +13 +13 по сезону 1011.4 1011.0
03 21.02 штиль 0 1000 м дымка ясно +14.4 +12.9 91 +14 +18 прохладно 1013.4 1013.0 +12.5 +29.0
06 21.02 ЮВ 1 2000 м мгла ясно +27.6 +11.6 37 +29 +44 жарко 1012.0 1012.0
09 21.02 Ю 2 2000 м мгла 4/0
[Ac trans Ci fib]
+31.2 +10.3 28 +31 +39 жарко 1008.8 1009.0
12 21.02 ЮЗ 1 2000 м мгла 5/0
[Ac trans Ci fib]
+29.6 +13.6 38 +31 +32 жарко 1007.5 1008.0 +31.7
15 21.02 штиль 0 2000 м мгла 3/0
[Ac trans]
+21.2 +14.8 67 +24 +24 комфорт 1009.2 1009.0
18 21.02 штиль 0 2000 м дымка 3/0
[Ac trans]
+17.4 +15.0 86 +17 +17 тепло 1010.6 1011.0
21 21.02 штиль 0 1000 м дымка 3/0
[Ac trans]
+16.8 +15.1 90 +17 +17 тепло 1010.8 1011.0
00 22.02 штиль 0 1000 м дымка ясно +15.0 +14.3 96 +15 +15 тепло 1010.1 1010.0
03 22.02 штиль 0 500 м местами туман поземный ясно +16.8 +16.1 96 +17 +21 по сезону 1011.6 1012.0 +14.0 +31.7
06 22.02 ЮЗ 1 2000 м мгла ясно +25.4 +15.1 53 +28 +43 жарко 1010.8 1011.0

 

Местоположение метеостанции New Delhi (Delhi, Индия): широта 28.58 долгота 77.20 высота над уровнем моря 216 м.

В архиве по умолчанию представлена погода в New Delhi за последнюю неделю. Архивные данные за месяц целиком и за предыдущие месяцы, начиная с января 2011 года, Вы можете получить, выбрав интересующий диапазон дат из раскрывающегося списка и нажав кнопку "Ввод!".

Внимание! Время в таблицах - всемирное. Для получения местного времени необходимо прибавить поправку, которая в New Delhi равна 5.5 ч.

Смотрите также архив погоды в соседних городах и на ближайших метеорологических станциях:

Погода в New Delhi Airport (Delhi, Индия) (8 км)
Погода в Ridge (Delhi, Индия) (10 км)
Погода в New Delhi Aya Nagar (Delhi, Индия) (13 км)
Погода в Meerut (Uttar Pradesh, Индия) (70 км)
Погода в Karnal (Haryana, Индия) (126 км)
Погода в Hissar (Haryana, Индия) (157 км)
Погода в Pilani (Rajasthan, Индия) (161 км)
Погода в Najibabad (Uttar Pradesh, Индия) (163 км)
Погода в Agra (Uttar Pradesh, Индия) (176 км)
Погода в Ambala (Haryana, Индия) (204 км)

Пояснения к столбцам:

Ветер - указаны скорость ветра в м/с - средняя за 10 мин, порывы в срок и между сроками (в фигурных скобках) и направление, откуда дует ветер: С - северный, СВ - северо-восточный, В - восточный, ЮВ - юго-восточный, Ю - южный, ЮЗ - юго-западный, З - западный, СЗ - северо-западный.
Видимость - горизонтальная дальность видимости в метрах или километрах. При видимости от 1 до 10 км при отсутствии осадков обычно наблюдается дымка, при ухудшении видимости до 1 км и менее - туман. В сухую погоду видимость может ухудшаться дымом, пылью или мглою.
Явления - указаны атмосферные явления, наблюдавшиеся в срок или в последний час перед сроком; фигурными скобками обозначены явления, наблюдавшиеся между сроками (за 1-3 часа до срока); квадратными скобками обозначены град или гололедные отложения с указанием их диаметра в мм.
Облачность - указаны через наклонную черту общая и нижняя облачность в баллах и высота нижней границы облаков в метрах; квадратными скобками обозначены формы облаков: Ci - перистые, Cs - перисто-слоистые, Cc - перисто-кучевые, Ac - высококучевые, As - высокослоистые, Sc - слоисто-кучевые, Ns - слоисто-дождевые, Cu - кучевые, Cb - кучево-дождевые. Подробнее классификацию облаков см. в Атласе облаков (PDF).
T - Температура воздуха - температура, измеренная на высоте 2 м над землей.
Td - Температура точки росы - температура, при понижении до которой содержащийся в воздухе водяной пар достигнет насыщения.
f - Относительная влажность воздуха - влажноcть воздуха, измеренная на высоте 2 м над землей.
Te - Эффективная температура - температура, которую ощущает одетый по сезону человек в тени. Характеристика душности погоды. При расчете учитывается влияние влажности воздуха и скорости ветра на теплоощущения человека.
Tes - Эффективная температура на солнце - температура, которую ощущает человек, с поправкой на солнечный нагрев. Характеристика знойности погоды. Зависит от высоты солнца над горизонтом, облачности и скорости ветра. Ночью, в пасмурную погоду, а также при ветре 12 м/с и более поправка равна нулю.
P - Атмосферное давление - приведенное к уровню моря атмосферное давление.
Po - Атмосферное давление - измеренное на уровне метеостанции атмосферное давление.
Tmin - Минимальная температура - минимум температуры воздуха на высоте 2 м над землей.
Tmax - Максимальная температура - максимум температуры воздуха на высоте 2 м над землей.
R - Количество осадков - Количество выпавших осадков за период времени, мм. При наведении курсора мыши на число - период времени, за который выпало указанное количество осадков.
R24 - Количество осадков - Количество выпавших осадков за 24 часа, мм.
S - Снежный покров - Высота снежного покрова, см. При наведении курсора мыши на число - состояние снежного покрова и степень покрытия местности в баллах.